Portsmouth, NH

11:34 AM EDT on July 26, 2017 (GMT -0400)
Pease International Tradeport

Weather History for KPSM - April, 2014

Change the Weather History Date:

Thursday, April 17, 2014

  Actual Average Record
Temperature  
Mean Temperature 33 °F -  
Max Temperature 39 °F 55 °F 93 °F (2002)
Min Temperature 27 °F 35 °F 25 °F (1981)
Degree Days  
Heating Degree Days 32    
Moisture  
Dew Point 17 °F    
Average Humidity 52    
Maximum Humidity 80    
Minimum Humidity 40    
Precipitation  
Precipitation 0.00 in - - ()
Sea Level Pressure  
Sea Level Pressure 30.77 in    
Wind  
Wind Speed 9 mph (NE)    
Max Wind Speed 14 mph    
Max Gust Speed 22 mph    
Visibility 10 miles    
Events      
Averages and records for this station are not official NWS values.
T = Trace of Precipitation, MM = Missing Value Source: NWS Daily Summary

Daily Weather History Graph

Daily Weather History Graph

Search for Another Location

Airport or City:

Trip Planner

Search our weather history database for the weather conditions in past years. The results will help you decide how hot, cold, wet, or windy it might be!

Date:

Astronomy

Apr. 17, 2014 Rise Set
Actual Time 5:58 AM EDT 7:28 PM EDT
Civil Twilight 5:28 AM EDT 7:58 PM EDT
Nautical Twilight 4:52 AM EDT 8:34 PM EDT
Astronomical Twilight 4:14 AM EDT 9:12 PM EDT
Moon 10:14 PM EDT (4/17) 7:24 AM EDT (4/17)
Length of Visible Light 14h 29m
Length of Day
13h 30m
Waning Gibbous, 94% of the Moon is Illuminated
Apr 17
Waning Gibbous
Apr 22
Last Quarter
Apr 29
New
May 6
First Quarter
May 14
Full

Hourly Weather History & Observations

Time (EDT) Temp. Windchill Dew Point Humidity Pressure Visibility Wind Dir Wind Speed Gust Speed Precip Events Conditions
12:58 AM 29.1 °F 22.1 °F 12.6 °F 50% 30.66 in 10.0 mi NE 6.9 mph - N/A   Clear
1:58 AM 28.4 °F 20.4 °F 12.7 °F 52% 30.68 in 10.0 mi NNE 8.1 mph - N/A   Clear
2:58 AM 27.7 °F 18.2 °F 12.2 °F 52% 30.70 in 10.0 mi NNE 10.4 mph - N/A   Partly Cloudy
3:58 AM 27.5 °F 18.6 °F 11.1 °F 50% 30.72 in 10.0 mi NNE 9.2 mph - N/A   Clear
4:58 AM 27.3 °F 17.7 °F 10.6 °F 49% 30.75 in 10.0 mi NNE 10.4 mph - N/A   Clear
5:58 AM 27.0 °F 18.7 °F 11.3 °F 52% 30.77 in 10.0 mi NNE 8.1 mph - N/A   Partly Cloudy
6:58 AM 28.2 °F 19.5 °F 11.8 °F 50% 30.79 in 10.0 mi NNE 9.2 mph - N/A   Mostly Cloudy
7:58 AM 31.5 °F 24.9 °F 14.4 °F 49% 30.82 in 10.0 mi NNE 6.9 mph - N/A   Mostly Cloudy
8:58 AM 34.7 °F 27.5 °F 15.3 °F 45% 30.83 in 10.0 mi NE 9.2 mph 20.7 mph N/A   Scattered Clouds
9:58 AM 36.3 °F 27.5 °F 15.6 °F 43% 30.84 in 10.0 mi NE 13.8 mph - N/A   Partly Cloudy
10:58 AM 37.2 °F 30.0 °F 16.0 °F 42% 30.85 in 10.0 mi ENE 10.4 mph 21.9 mph N/A   Partly Cloudy
11:58 AM 37.9 °F 30.0 °F 16.7 °F 42% 30.84 in 10.0 mi ENE 12.7 mph 19.6 mph N/A   Partly Cloudy
12:58 PM 39.0 °F 31.0 °F 17.2 °F 41% 30.82 in 10.0 mi ENE 13.8 mph 19.6 mph N/A   Partly Cloudy
1:58 PM 39.2 °F 31.6 °F 16.9 °F 40% 30.81 in 10.0 mi ENE 12.7 mph - N/A   Scattered Clouds
2:58 PM 39.0 °F 32.8 °F 17.4 °F 42% 30.80 in 10.0 mi East 9.2 mph - N/A   Scattered Clouds
3:17 PM 39.2 °F 33.0 °F 17.6 °F 42% 30.78 in 10.0 mi East 9.2 mph 18.4 mph N/A   Scattered Clouds
3:58 PM 39.0 °F 31.4 °F 21.2 °F 49% 30.80 in 10.0 mi ESE 12.7 mph - N/A   Mostly Cloudy
4:58 PM 37.2 °F 29.1 °F 23.2 °F 57% 30.79 in 10.0 mi East 12.7 mph - N/A   Mostly Cloudy
5:58 PM 36.7 °F 29.4 °F 22.6 °F 57% 30.78 in 10.0 mi East 10.4 mph - N/A   Mostly Cloudy
6:58 PM 35.2 °F 29.5 °F 22.1 °F 59% 30.77 in 10.0 mi ESE 6.9 mph - N/A   Mostly Cloudy
7:58 PM 33.8 °F 29.6 °F 22.3 °F 63% 30.76 in 10.0 mi East 4.6 mph - N/A   Mostly Cloudy
8:58 PM 32.7 °F - 22.3 °F 65% 30.76 in 10.0 mi NE 2.3 mph - N/A   Mostly Cloudy
9:58 PM 32.2 °F - 22.5 °F 67% 30.74 in 10.0 mi NE 2.3 mph - N/A   Mostly Cloudy
10:58 PM 31.1 °F - 23.4 °F 73% 30.72 in 10.0 mi North 2.3 mph - N/A   Scattered Clouds
11:58 PM 29.3 °F 24.3 °F 23.9 °F 80% 30.69 in 10.0 mi North 4.6 mph - N/A   Scattered Clouds